Regional Weather Roundup
Issued by NWS Wakefield, VA

Home | Current Version | Previous Version | Text Only | Print | Product List | Glossary On
Versions: 1 2 3 4 5 6 7 8 9 10 11 12 13 14 15 16 17 18 19 20 21 22 23 24 25 26 27 28 29 30 31 32 33 34 35 36 37 38 39
000
ASUS41 KAKQ 231910
RWRAKQ

REGIONAL WEATHER ROUNDUP
NATIONAL WEATHER SERVICE WAKEFIELD VA
300 PM EDT THU OCT 23 2014

Note: "fair" indicates few or no clouds below 12,000 feet with no
significant weather and/or obstructions to visibility. * = Denotes
station may not report precipitation (e.g., rain,snow,etc.),
thunder or fog.

VAZ042-051-052>054-056-232000-
NORTHERN VIRGINIA

CITY           SKY/WX    TMP DP  RH WIND       PRES   REMARKS
WASH NATIONAL  PTSUNNY   67  45  45 NW24G36   29.87S
DULLES         PTSUNNY   61  44  53 NW24G31   29.88S
FORT BELVOIR   CLOUDY    64  45  50 NW20      29.86F
QUANTICO       PTSUNNY   67  44  43 N22G30    29.87F
FREDERICKSBRG* CLOUDY    66  46  48 NW13G28   29.87S
STAFFORD*      PTSUNNY   66  45  46 NW18G24   29.91S
WARRENTON      PTSUNNY   67  51  57 NW20G25   29.89S
CULPEPER*      MOSUNNY   66  45  45 NW17G26   29.90F
MANASSAS*      NOT AVBL
LEESBURG*      CLOUDY    61  46  59 NW20      29.90R
WINCHESTER     PTSUNNY   61  37  41 NW20G26   29.93S
FRONT ROYAL*   CLEAR     61  43  51 NW13G21   29.93S
LURAY*         PTCLDY    61  45  55 W12G18    29.96S
$$

VAZ048-049-060>072-079>083-232000-
CENTRAL AND SOUTH CENTRAL VIRGINIA...AND NORTH CENTRAL NORTH CAROLINA

CITY           SKY/WX    TMP DP  RH WIND       PRES   REMARKS
RICHMOND       MOSUNNY   68  45  43 NW15      29.86F
CHESTERFIELD*    N/A    N/A N/A N/A MISG        N/A
PETERSBURG*    SUNNY     68  42  39 NW13      29.88F
HANOVER        PTSUNNY   68  46  45 NW9G22    29.88F
TAPPAHANNOCK*  CLOUDY    66  41  39 NW10G20   29.86F
CHARLOTTSVILLE SUNNY     65  43  44 NW13G25   29.91F
ORANGE*        SUNNY     66  45  45 W12G17    29.91S
LOUISA*        SUNNY     66  45  45 NW15G24   29.88S
FARMVILLE*     SUNNY     70  43  37 NW9       29.88F
CREWE*         CLEAR     68  44  40 NW10G23   29.89S
FORT PICKETT*  CLEAR     68  45  43 NW10G22   29.89F
LUNENBURG*     CLEAR     68  47  46 NW7       29.89F
SOUTH HILL*    SUNNY     70  46  43 W7        29.95F
LAWRENCEVILLE* PTCLDY    68  48  48 NW8       29.88F
ROANOKE RAPIDS CLEAR     64  46  52 NW9G17    29.90S
RALEIGH        SUNNY     68  43  40 W6G21     29.93F
$$

VAZ088>098-232000-
SOUTHEAST VIRGINIA

CITY           SKY/WX    TMP DP  RH WIND       PRES   REMARKS
NORFOLK        CLOUDY    63  46  54 NW8       29.84F
VIRGINIA BEACH PTSUNNY   64  47  53 NW14      29.83F
NORFOLK NAVAL  CLOUDY    65  46  50 W17G24    29.85F
WEST POINT*    PTSUNNY   69  43  37 W15G22    29.86S
NEWPORT NEWS   PTSUNNY   69  48  47 W14G21    29.84F
LANGLEY AFB    CLOUDY    66  49  54 W15       29.83F
FORT EUSTIS    PTSUNNY   66  46  48 NW17      29.83F
WILLIAMSBURG*  SUNNY     70  48  46 NW15G23   29.85S
HR EXEC AP*    MOCLDY    66  48  52 W6G16     29.87F
FRANKLIN*      MOSUNNY   66  46  48 NW13G23   29.87F
WAKEFIELD      PTSUNNY   67  46  47 VRB6      29.86F
$$

VAZ020-022-025-037-045-232000-
WEST CENTRAL AND SOUTHWEST VIRGINIA

CITY           SKY/WX    TMP DP  RH WIND       PRES   REMARKS
STAUNTON*      SUNNY     63  40  42 NW17      29.98S
HOT SPRINGS VA PTSUNNY   48  39  71 NW16G25   30.00S
LYNCHBURG      SUNNY     66  41  40 N9G17     29.95F
DANVILLE       SUNNY     69  42  37 N9G17     29.95F
SOUTH BOSTON*  NOT AVBL
MARTINSVILLE   SUNNY     64  41  42 NW13G21   30.02F
ROANOKE        MOSUNNY   61  39  44 W16G30    30.01F
BLACKSBURG     SUNNY     57  45  62 NW9G17    30.06F
DUBLIN*        MOSUNNY   56  42  59 NW8G20    30.08F
MARION*        PTSUNNY   51  41  67 W13       30.13F
HILLSVILLE*    SUNNY     51  39  62 NW20      30.06S
RICHLANDS*     CLOUDY    50  41  71 N6        30.13F
WISE*          MOSUNNY   52  37  58 N10       30.15F
ABINGDON*      PTSUNNY   55  40  57 NE6       30.12F
$$

MDZ021>025-VAZ099-100-232000-
SOUTHERN MARYLAND AND THE DELMARVA PENINSULA

CITY           SKY/WX    TMP DP  RH WIND       PRES   REMARKS
PATUXENT RIVER PTSUNNY   65  45  48 NW21G37   29.81F
BAY BRIDGE APT   N/A     59  45  58 NW13G23   29.82S
LEONARDTOWN    CLOUDY    61  43  51 NW14G21   29.84S
DOVER          CLOUDY    59  48  67 NW23      29.75F
GEORGETOWN     CLOUDY    58  46  64 VRB7      29.78S
EASTON         CLOUDY    61  48  63 NW16G26   29.84
CAMBRIDGE      CLOUDY    61  45  55 NW15G22   29.80S
SALISBURY      CLOUDY    62  46  55 NW12G30   29.78F
OCEAN CITY     CLOUDY    57  47  69 N15G23    29.76F
WALLOPS ISLAND CLOUDY    60  47  61 NW18G26   29.79R
ACCOMACK*      CLOUDY    61  45  55 NW21      29.80F
$$

NCZ012>017-030>032-232000-
EASTERN NORTH CAROLINA

CITY           SKY/WX    TMP DP  RH WIND       PRES   REMARKS
ELIZABETH CITY MOSUNNY   68  48  48 NW16G24   29.85F
AHOSKIE*       SUNNY     65  46  50 NW8       29.89S
EDENTON*       SUNNY     66  47  50 NW13G22   29.87S
CURRITUCK*     MOSUNNY   65  44  46 NW10      29.84F
KILL DEVIL HLS MOSUNNY   64  48  55 W12G20    29.83F
MANTEO         SUNNY     64  47  55 W12G20    29.85F
CAPE HATTERAS  SUNNY     64  48  56 NW9G17    29.86F
TARBORO*       CLEAR     68  46  44 W13G20    29.91S
GOLDSBORO      SUNNY     69  49  49 W10       29.90F
WASHINGTON     SUNNY     66  46  49 NW12G17   29.89F
GREENVILLE     SUNNY     68  45  42 W9G16     29.92F
NEW BERN       SUNNY     69  44  40 NW13      29.90F
WILMINGTON     SUNNY     69  42  37 W15G21    29.92F
$$

VAZ048-232000-
ELSEWHERE

CITY           SKY/WX    TMP DP  RH WIND       PRES   REMARKS
HARRISBURG PA  PTSUNNY   61  44  53 NW23G30   29.83S
BALTIMORE      PTSUNNY   61  45  55 NW16G24   29.82F
ANNAPOLIS      CLOUDY    61  46  57 NW16      29.82S
ANDREWS AFB    CLOUDY    61  45  56 NW22      29.84F
WILMINGTON DE  CLOUDY    57  46  66 NW16G29   29.80S
PHILADELPHIA   CLOUDY    55  44  66 NW25G35   29.77F
WILDWOOD NJ*   CLOUDY    57  46  67 NW8G23    29.76S
ATLANTIC CITY  CLOUDY    54  51  90 NW16      29.72F
HENDERSON NC   SUNNY     66  41  40 NW10G16   29.92F
GREENSBORO     SUNNY     67  41  38 NW9       29.97F
ROCKY MOUNT    SUNNY     69  45  41 W12G17    29.91F
FAYETTEVILLE   SUNNY     69  42  37 NW12      29.94F
CHARLOTTE      SUNNY     67  37  33 VRB5G16   30.01F
$$

VAZ100-232000-
MARINE

STATION/POSITION TIME  TEMP    WIND        PRES    WAVE   SWELL
                       AIR SEA DIR/SP/G            HT/PER HT/PER
                 (UTC) (F)     (DEG/KT/KT) (MB)    (FT/S) (FT/S)
44066 TX TWR #4  1900   57 67  330/ 23/ 27 1001.0R  10/ 7
CAPE MAY NJ      1900   57 62  330/ 16/ 25 1006.8F
LEWES DE         1900   57 59  330/ 23/ 27 1007.4S
15NM E FENWICK I 1900   57 65  310/ 25/ 31 1006.3F   8/ 6
OCEAN-CITY-INLET 1900   57 63  340/ 13/ 17 1007.5S
WACHAPREAGUE VA  1900   61 60  290/  3/ 12 1008.7F
THOMAS POINT MD  1900   61 62  330/ 19/ 22 1010.4F
GOOSES REEF MD   1900   62     340/ 21/ 25 1009.8F
COVE POINT MD    1900   62     340/ 22/ 27 1009.1S
SOLOMONS ISLAND  1900      64                N/A
BISHOPS HEAD MD  1900   61 55  320/ 20/ 27 1008.8S
PINEY POINT MD   1900          340/ 23/ 28   N/A
POTOMAC MD       1900   62     320/ 19/ 27 1009.0F
CAMBRIDGE MD     1900   60 60  310/ 12/ 18 1008.7R
LEWISETTA VA     1900   62 60  320/ 16/ 22 1009.6F
RAPPAHANNOCK LGT 1900          310/ 23/ 26 1009.7F
STINGRAY PT      1900   62     320/ 16/ 19 1010.4F
YORK RVR RNG VA  1900   63     330/ 18/ 20 1009.6S
YORKTOWN VA      1900   63 65  320/ 18/ 20 1009.9F
JAMESTOWN VA     1900   63     330/ 16/ 21   N/A
DOMINION TERM VA 1900   62     310/ 18/ 21 1010.4S
KIPTOPEKE VA     1900      66  320/ 20/ 23   N/A
CHES BAY BRIDGE  1900   62 66  300/ 18/ 21 1009.7F
CAPE HENRY VA    1900   61     310/ 18/ 23 1008.9F
CHESAPEAKE LGHT  1800   59     320/ 26/ 29 1010.4F
WILLOUBY STN VA  1900   62     290/ 19/ 24 1009.0F
S CRANEY ISL VA  1900          280/ 10/ 15 1010.3F
CAPE HENRY BUOY  1900      68                N/A     6/ 4
1ST LANDING BUOY 1900   62     310/ 17/ 21 1009.8F
CAPE CHARLES BUO 1900      67                N/A     4/ 8   2/ 8
64NM E OF VA BCH 1900   61 67  320/ 25/ 29 1008.3F   9/ 6   2/14
DUCK PIER NC     1900   63 67  310/ 12/ 17 1009.5S
44100 DUCK FRF   1900      69                N/A     6/ 7   2/11
44056 DUCK FRF   1900                        N/A     5/ 6
OREGON INLET NC  1900   62 63  290/ 11/ 18 1010.6F
HATTERAS NC      1900   63 63  280/ 16/ 19 1011.5F
DIAMOND SHLS NC  1900   63     290/ 17/ 21 1011.4F   5/ 6   3/ 9
CAPE LOOKOUT NC  1800   63     260/ 15/ 17 1012.5F
$$



USA.gov is the U.S. government's official web portal to all federal, state and local government web resources and services.